Other Surface Observations
Issued by NWS

Home | Current Version | Previous Version | Text Only | Print | Product List | Glossary On
Versions: 1 2 3 4 5 6 7 8 9 10 11 12 13 14 15 16 17 18 19 20 21 22 23 24 25 26 27 28 29 30 31 32 33 34 35 36 37 38 39 40 41 42 43 44 45 46 47 48 49 50
855
SXUS52 KTAE 251218
OSOTAE
OSOTAE
North Florida/South Alabama/Southwest Georgia Weather Roundup
National Weather Service Tallahassee Florida
800 AM EDT WED MAY 25 2016

Note: "fair" indicates few or no clouds below 12,000 feet with no
significant weather and/or obstructions to visibility.

!FLZ017-115-028-034-025-251300
...North Florida...

CITY           SKY/WX    TMP DP  RH WIND       PRES   REMARKS
TALLAHASSEE    SUNNY     71  61  70 E8        30.18R
APALACHICOLA   SUNNY     70  66  87 N3        30.16R
PERRY          SUNNY     70  61  71 E5        30.20R
CROSS CITY       N/A     72  61  68 VRB3      30.19R
JACKSONVILLE   MOSUNNY   69  65  86 CALM      30.21R
$$

!FLZ112-006-005-002-011-251300
...Florida Panhandle...

CITY           SKY/WX    TMP DP  RH WIND       PRES   REMARKS
MARIANNA       SUNNY     67  62  84 E5        30.18R
BONIFAY        FAIR      65  61  87 CALM      30.19S
PANAMA CITY NW FAIR      65  62  90 CALM      30.16R
TYNDALL AFB    SUNNY     68  63  82 NE3       30.18R
TYND DRONE APT FAIR      69  65  86 N3        30.18R
DE FUNIAK SPR  FAIR      66  62  84 E7        30.19R
EGLIN AFB      MOSUNNY   67  62  84 CALM      30.16R
DESTIN         SUNNY     73  68  84 E5        30.18R
HURLBURT       MOSUNNY   65  64  94 NE1       30.15R
CRESTVIEW      MOSUNNY   63  59  87 CALM      30.18R
PENSACOLA      SUNNY     68  65  90 E3        30.15S
$$

!ALZ063-066-251300
...South Alabama...

CITY           SKY/WX    TMP DP  RH WIND       PRES   REMARKS
DOTHAN         SUNNY     67  60  78 CALM      30.23R
OZARK CAIRNS   SUNNY     64  60  88 SE8       30.18R
FT RUCKER HELI SUNNY     62  59  90 CALM      30.16R
RUCKER HELI 3  FAIR      69  61  76 CALM      30.18R
RUCKER HELI 2  NOT AVBL
FLORALA APT    SUNNY     65  61  87 CALM      30.19R
ANDALUSIA      MOSUNNY   69  61  75 CALM      30.17R
TROY           SUNNY     63  59  87 CALM      30.17S
EUFALA         FAIR      66  62  87 CALM      30.17R
MOBILE         CLOUDY    68  68 100 E6        30.14R
$$

!GAZ120>161-251300
...Southwest and South Central Georgia...

CITY           SKY/WX    TMP DP  RH WIND       PRES   REMARKS
THOMASVILLE    FAIR      66  63  88 SE3       30.21R
BAINBRIDGE     SUNNY     66  61  82 CALM      30.21R
MOODY AFB      SUNNY     68  60  75 SE5       30.20R
VALDOSTA       SUNNY     67  62  84 SE3       30.21R
MOULTRIE       SUNNY     68  61  77 CALM      30.21S
BLAKELY        SUNNY     64  63  94 CALM      30.20S
ALBANY         SUNNY     67  60  78 CALM      30.22R
TIFTON         FAIR      67  62  84 SE3       30.21R
FITZGERALD     FAIR      68  62  82 CALM      30.23S
CORDELE        FAIR      72  62  72 S3        30.22R
AMERICUS       FAIR      66  61  82 SE5       30.23R
HOMERVILLE     FAIR      70  63  78 CALM      30.22R
$$

!GMZ750-755-770-775-251300
...Coastal and Buoy Obs...

STATION/POSITION TIME  TEMP    WIND        PRES    VSBY  WAVE
                       AIR SEA DIR/SP/G                  HT/PER
                 (UTC) (F)     (DEG/KT/KT) (MB)    (MI)  (FT/S)
KEATON BEACH     1200   69     110/  7/  8 1022.0R
CEDAR KEY        1200   76     120/ 14/ 15 1022.5R
C TOWER          1200   77     150/ 13/ 14 1021.8R
APALACHICOLA BUO 1150   78 78  150/ 12/ 16 1020.5R         2/ 4
PANAMA CITY BUOY 1150   77 80  120/ 10/ 12 1021.1R         1
MOBILE BUOY      1200   77 77  100/  6/  8 1020.8R
ORANGE BCH AL BU 1150   77 78  130/  8/ 10 1020.2R         1/ 4
$$




USA.gov is the U.S. government's official web portal to all federal, state and local government web resources and services.